Total_Precipitation_Accumulation
1.47 1.39 1.25 1.38 1.45 1.49 1.47 1.45 1.41 1.42 1.47 1.44 1.39 1.38 1.38 1.38 1.39 1.52 2.04 2.91 4.13 4.96 5.14 5.00 4.32 3.88 3.58 3.23 3.12 3.30 3.50 3.51 3.37 3.29 3.54 3.72 3.59 3.35 3.12 3.02 3.11 3.10 3.07
1.37 1.37 1.33 1.40 1.48 1.53 1.49 1.40 1.33 1.44 1.49 1.52 1.47 1.38 1.33 1.23 1.30 1.50 1.84 2.18 2.61 3.43 4.53 4.95 4.63 4.29 3.99 3.61 3.35 3.27 3.27 3.22 3.18 3.17 3.24 3.20 3.03 2.77 2.70 2.86 3.07 2.99 2.91
1.34 1.35 1.38 1.42 1.44 1.53 1.59 1.60 1.52 1.53 1.54 1.65 1.67 1.46 1.36 1.28 1.27 1.44 1.68 1.93 1.86 2.13 3.14 4.13 4.52 4.33 4.17 3.89 3.49 3.34 3.20 3.18 3.03 3.09 3.01 2.93 2.73 2.63 2.59 2.84 3.06 3.07 2.96
1.27 1.33 1.36 1.41 1.47 1.46 1.54 1.68 1.69 1.72 1.72 1.79 1.78 1.56 1.38 1.46 1.35 1.39 1.62 1.72 1.79 1.82 2.20 2.68 3.14 3.57 4.04 4.18 3.94 3.60 3.32 3.16 2.91 2.96 2.90 2.78 2.65 2.63 2.63 2.92 2.94 2.97 2.98
1.43 1.51 1.56 1.56 1.57 1.64 1.66 1.59 1.63 1.77 1.87 1.87 1.71 1.63 1.52 1.54 1.52 1.49 1.71 1.75 1.79 1.84 1.94 1.92 2.11 2.55 3.30 3.92 4.14 4.00 3.63 3.26 2.98 2.87 2.80 2.62 2.67 2.72 2.66 2.79 2.81 2.79 2.82
1.72 1.86 1.87 1.74 1.79 1.91 2.02 1.92 1.99 1.90 1.81 1.88 1.67 1.64 1.64 1.59 1.55 1.64 1.71 1.80 1.96 1.86 1.87 1.85 1.92 1.90 2.35 2.92 3.51 3.90 3.91 3.70 3.36 3.12 2.99 2.62 2.57 2.68 2.76 2.73 2.71 2.76 2.73
2.11 2.27 2.26 2.23 2.22 2.23 2.22 2.17 2.38 2.28 1.99 1.89 2.11 2.11 1.91 1.70 1.62 1.61 1.66 1.91 2.04 2.00 2.13 2.09 1.99 1.86 1.79 1.93 2.32 3.19 3.74 3.96 3.87 3.51 3.32 2.98 2.57 2.48 2.59 2.50 2.49 2.58 2.62
2.34 2.36 2.59 2.67 2.61 2.80 2.82 2.58 2.71 2.74 2.35 2.10 2.43 2.81 2.53 2.27 1.77 1.66 1.81 1.88 2.00 2.16 2.29 2.16 1.95 1.86 1.83 1.83 1.77 2.24 2.76 3.50 3.95 3.65 3.53 3.42 2.81 2.51 2.41 2.36 2.44 2.48 2.53
2.46 2.55 2.65 2.80 2.80 2.87 3.07 3.19 3.09 3.19 2.96 2.50 2.38 2.79 2.77 2.63 2.38 1.98 1.90 1.99 2.13 2.22 2.34 2.33 2.12 1.91 1.84 1.89 1.79 1.68 1.84 2.24 3.14 3.64 3.76 3.80 3.28 2.80 2.42 2.32 2.38 2.36 2.48
2.72 2.84 2.83 2.87 2.89 2.91 3.00 3.17 3.16 3.37 3.49 3.05 2.67 2.41 2.25 2.27 2.50 2.36 2.08 2.03 2.19 2.19 2.19 2.20 2.27 2.17 1.97 2.03 1.87 1.56 1.46 1.58 2.20 3.08 3.57 3.91 3.72 3.23 2.73 2.56 2.60 2.53 2.57
2.87 2.92 2.96 3.07 3.04 3.00 2.91 3.11 3.23 3.38 3.32 3.27 3.14 2.95 2.78 2.52 2.17 2.34 2.39 2.24 2.13 2.01 2.06 2.15 2.32 2.38 2.26 2.15 2.23 1.76 1.43 1.41 1.66 2.42 3.08 3.88 4.05 3.68 3.35 3.07 2.85 2.74 2.56
2.95 2.81 2.72 2.89 2.93 2.92 2.86 3.00 3.14 3.31 3.32 3.36 3.29 3.00 3.02 2.94 2.58 2.55 2.38 2.22 2.28 2.10 2.00 2.05 2.11 2.13 2.26 2.24 2.09 2.01 1.65 1.44 1.50 1.87 2.56 3.33 4.03 4.04 3.80 3.61 3.30 3.18 2.95
2.79 2.79 2.67 2.69 2.72 2.64 2.60 2.70 2.75 2.83 2.99 3.17 3.07 2.83 2.77 2.62 2.64 2.79 2.70 2.41 2.21 1.99 1.98 1.95 1.95 2.01 2.04 2.09 2.16 2.15 1.70 1.46 1.43 1.62 2.31 2.87 3.44 3.89 3.96 3.76 3.58 3.63 3.65
2.50 2.56 2.57 2.51 2.56 2.58 2.50 2.59 2.59 2.59 2.64 2.70 2.62 2.73 2.77 2.59 2.55 2.58 2.68 2.89 2.63 2.30 2.10 1.96 1.93 2.03 2.09 2.07 2.16 2.15 1.70 1.54 1.41 1.47 1.84 2.28 2.70 3.21 3.54 3.49 3.46 3.64 3.80
2.07 2.12 2.18 2.30 2.39 2.44 2.45 2.54 2.58 2.53 2.45 2.44 2.54 2.62 2.56 2.49 2.49 2.44 2.50 2.71 2.88 2.66 2.40 2.20 2.07 2.05 2.14 2.17 2.24 1.93 1.84 1.71 1.52 1.54 1.64 1.69 1.92 2.23 2.49 2.74 2.94 2.92 3.15
1.71 1.79 1.87 2.03 2.31 2.43 2.42 2.47 2.52 2.53 2.50 2.41 2.50 2.63 2.68 2.63 2.65 2.62 2.56 2.61 2.58 2.62 2.45 2.15 2.00 1.98 2.15 2.11 2.28 1.97 1.89 2.05 1.78 1.69 1.64 1.51 1.51 1.57 1.68 1.93 2.26 2.43 2.48
1.66 1.72 1.74 1.86 1.99 2.20 2.40 2.53 2.50 2.44 2.41 2.36 2.27 2.39 2.54 2.60 2.74 2.79 2.85 2.78 2.67 2.64 2.53 2.23 2.01 1.96 2.18 2.24 2.19 2.11 1.94 1.91 1.88 1.87 1.74 1.65 1.53 1.40 1.44 1.54 1.80 2.06 2.28
1.57 1.56 1.64 1.83 1.93 1.99 2.07 2.14 2.18 2.21 2.22 2.24 2.18 2.14 2.21 2.31 2.42 2.61 2.75 2.74 2.76 2.68 2.63 2.56 2.31 2.07 2.01 2.10 2.20 2.33 2.20 1.94 1.91 2.04 1.94 1.84 1.71 1.54 1.42 1.40 1.50 1.63 1.83
1.58 1.55 1.55 1.66 1.73 1.81 1.88 1.93 2.05 2.13 2.14 2.06 2.05 1.93 1.90 2.02 2.15 2.31 2.40 2.53 2.69 2.74 2.78 2.71 2.58 2.35 2.09 2.12 2.23 2.29 2.31 2.36 2.09 2.04 2.02 1.98 1.89 1.79 1.66 1.48 1.37 1.38 1.43
1.53 1.55 1.65 1.69 1.70 1.69 1.80 1.86 1.94 1.93 1.89 1.79 1.76 1.69 1.67 1.72 1.86 2.06 2.17 2.39 2.66 2.79 2.84 2.81 2.72 2.44 2.23 2.19 2.19 2.27 2.40 2.47 2.40 2.14 2.04 1.94 2.04 1.98 1.78 1.61 1.45 1.40 1.43
1.57 1.58 1.65 1.71 1.73 1.70 1.75 1.86 1.80 1.68 1.67 1.66 1.58 1.40 1.35 1.46 1.54 1.68 1.67 1.97 2.30 2.57 2.66 2.69 2.67 2.49 2.23 2.13 1.98 2.05 2.24 2.42 2.46 2.38 2.31 2.01 1.92 1.87 1.82 1.77 1.64 1.54 1.48
1.48 1.51 1.51 1.66 1.77 1.64 1.84 1.86 1.66 1.45 1.42 1.47 1.44 1.31 1.24 1.30 1.27 1.28 1.33 1.58 1.91 2.11 2.28 2.44 2.49 2.34 2.14 2.05 2.10 2.10 2.12 2.18 2.20 2.09 2.11 2.12 1.99 1.90 1.83 1.80 1.82 1.74 1.63
1.42 1.44 1.39 1.49 1.54 1.63 1.71 1.54 1.52 1.39 1.36 1.34 1.36 1.39 1.27 1.20 1.35 1.21 1.19 1.30 1.40 1.54 1.71 1.97 2.17 2.13 2.23 2.15 2.06 1.95 1.96 1.98 2.00 2.05 2.08 2.10 1.95 1.85 1.73 1.72 1.91 1.80 1.76
1.35 1.37 1.32 1.27 1.33 1.47 1.51 1.35 1.42 1.30 1.38 1.40 1.41 1.50 1.49 1.38 1.37 1.49 1.41 1.40 1.34 1.29 1.42 1.34 1.49 1.88 2.06 2.17 2.15 2.15 2.25 2.15 1.95 1.95 2.03 2.09 1.90 1.75 1.62 1.56 1.71 1.63 1.57
1.32 1.28 1.28 1.22 1.24 1.29 1.33 1.24 1.28 1.26 1.38 1.38 1.33 1.47 1.54 1.44 1.59 1.74 1.75 1.75 1.64 1.46 1.62 1.65 1.53 1.64 1.85 1.94 2.06 2.11 2.13 2.07 1.96 1.82 1.71 1.78 1.69 1.66 1.65 1.57 1.54 1.62 1.55
1.34 1.25 1.24 1.18 1.13 1.11 1.22 1.11 1.20 1.24 1.32 1.35 1.36 1.41 1.64 1.56 1.58 1.59 1.61 1.71 1.65 1.47 1.33 1.33 1.32 1.25 1.21 1.35 1.61 1.70 1.96 2.11 2.04 1.90 1.66 1.65 1.71 1.74 1.73 1.52 1.40 1.47 1.49